Home > Weather > Cambridge > Past weeks

Flag for USA Weather for the Past 2 Weeks in Cambridge, Massachusetts, USA

Now
46 °F

Passing clouds.


Feels Like: 41 °F
Forecast: 43 / 56 °F
Wind: 10 mph from Southwest

Location: Logan International Airport

Current Time: May 1, 2016 at 12:31:50 AM

Latest Report: Apr 30, 2016 at 11:54 PM


Visibility: 10 mi

Pressure: 30.26 "Hg

Humidity: 63%

Dew Point: 34 °F

Location of CambridgeLocation

Historic Weather in Cambridge — Graph

°F

Cambridge Temperature Yesterday

Maximum temperature yesterday: 55 °F (at 11:54 AM)
Minimum temperature yesterday: 42 °F (at 2:54 AM)
Average temperature yesterday: 49 °F

High & Low Weather Summary for the Past Weeks

 TemperatureHumidityPressure
High78 °F (Apr 22, 3:54 PM)90% (Apr 23, 1:54 AM)30.49 "Hg (Apr 23, 1:54 AM)
Low37 °F (Apr 26, 7:54 PM)13% (Apr 21, 3:54 PM)29.75 "Hg (Apr 26, 11:54 AM)
Average50 °F55%30.07 "Hg
* Reported Apr 15 9:54 PM — Apr 30 9:54 PM, Cambridge, Weather by CustomWeather, © 2016

Note: Actual official high and low records may vary slightly from our data, if they occured in-between our weather recording intervals... More about our weather records

Advertising

Cambridge Weather History for the Previous 24 Hours

Scroll right to see more
 ConditionsComfort  
Time TempWeatherWind HumidityBarometerVisibility
9:54 PM
Sat, Apr 30
48 °FPassing clouds.13 mph59%30.25 "Hg10 mi
8:54 PM50 °FPassing clouds.13 mph52%30.24 "Hg10 mi
7:54 PM52 °FScattered clouds.12 mph50%30.22 "Hg10 mi
6:54 PM53 °FPartly sunny.10 mph48%30.20 "Hg10 mi
5:54 PM52 °FPartly sunny.15 mph57%30.21 "Hg10 mi
4:54 PM51 °FScattered clouds.18 mph54%30.21 "Hg10 mi
3:54 PM53 °FScattered clouds.18 mph41%30.20 "Hg10 mi
2:54 PM53 °FScattered clouds.21 mph45%30.20 "Hg10 mi
1:54 PM54 °FPassing clouds.16 mph45%30.20 "Hg10 mi
11:54 AM55 °FPassing clouds.10 mph47%30.20 "Hg10 mi
10:54 AM54 °FSunny.9 mph45%30.22 "Hg10 mi
9:54 AM53 °FSunny.7 mph43%30.23 "Hg10 mi
8:54 AM52 °FSunny.6 mph43%30.23 "Hg10 mi
7:54 AM48 °FSunny.7 mph61%30.24 "Hg10 mi
6:54 AM45 °FPassing clouds.6 mph68%30.22 "Hg10 mi
5:54 AM42 °FClear.9 mph76%30.17 "Hg10 mi
4:54 AM43 °FClear.8 mph71%30.17 "Hg10 mi
3:54 AM42 °FClear.7 mph68%30.18 "Hg10 mi
2:54 AM42 °FPassing clouds.6 mph68%30.18 "Hg10 mi
1:54 AM44 °FPassing clouds.7 mph60%30.18 "Hg10 mi
12:54 AM45 °FPassing clouds.6 mph56%30.17 "Hg10 mi
Weather by CustomWeather, © 2016

See weather overviewHow to use our weather pages